Location: City of Rowan
(42.7391°N, 93.5504°W)
Time: 00:55:58
(UTC+00:00)

Daily predictions for brighter satellites

Satellite Brightness Start Highest point End
(mag) Time Altitude Azimuth Time Altitude Azimuth Time Altitude Azimuth
Cosmos 2026 Rocket 4.1 02:16:33 10° S 02:22:44 86° W 02:28:52 10° N
Cosmos 1470 3.4 02:21:54 10° N 02:25:20 36° ENE 02:28:46 10° SE
ARGOS Delta rocket 4.5 02:24:06 10° SE 02:28:11 35° ENE 02:32:11 10° N
Cosmos 468 Rocket 4.4 02:24:28 10° N 02:29:33 49° ENE 02:34:32 10° SE
CZ-4 R/B 3.6 02:28:14 10° SSW 02:31:29 24° W 02:34:47 10° NW
Ariane Rocket 4.5 02:28:21 10° ESE 02:32:13 22° ENE 02:36:05 10° NNE
CZ-4B R/B 4.0 02:27:33 10° S 02:32:39 49° W 02:37:50 10° NNW
KORONAS-FOTON 3.7 02:31:19 10° S 02:34:59 64° E 02:38:42 10° NNE
IRIDIUM 106 4.3 02:34:14 10° N 02:39:29 84° E 02:44:41 10° S
Cosmos 1842 3.0 02:37:01 10° S 02:40:40 83° E 02:44:20 10° N
ATLAS 2AS CENTAUR R/B 4.1 02:37:04 10° NNW 02:42:52 28° NE 02:48:29 10° E
Cosmos 2360 Rocket 3.8 02:42:47 10° N 02:47:11 23° NE 02:51:35 10° ESE
Cosmos 540 Rocket 3.5 02:43:52 10° NNW 02:49:03 80° ENE 02:54:10 10° SSE
IRS-1C Rocket 4.3 02:45:49 10° SSE 02:50:57 59° ENE 02:56:08 10° N
In-Cosmos 22 4.4 02:45:53 10° SSE 02:51:18 50° E 02:56:38 10° NNE
RESURS DK-1 3.9 02:48:58 10° N 02:52:20 24° NE 02:55:35 11° ESE
SL-16 R/B 2.7 02:52:56 10° NNW 02:58:28 50° ENE 03:03:14 14° SE
Cosmos 2082 Rocket 3.6 02:54:48 10° SW 03:00:12 43° WNW 03:05:39 10° NNE
Cosmos 2333 Rocket 3.6 02:55:35 10° N 03:00:21 26° NE 03:05:07 10° ESE
Cosmos 2369 4.5 02:56:46 10° NW 03:02:17 50° WSW 03:07:47 10° S
MOS 1 Rocket 4.2 02:59:27 13° SE 03:03:55 42° ENE 03:08:53 10° N
Okean-O 3.1 02:59:40 10° S 03:03:59 59° W 03:08:22 10° NNW
Cosmos 1954 Rocket 4.4 02:59:28 10° SSW 03:04:44 69° WNW 03:10:01 10° NNE
Cosmos 1707 3.0 03:02:06 10° SSW 03:05:39 61° W 03:09:14 10° N
SeaSat 1 2.7 03:02:21 14° SE 03:06:31 60° ENE 03:11:21 10° NNW
Atlas Centaur 2 3.8 03:01:13 10° WSW 03:08:18 34° S 03:14:19 14° SE
CZ-4C R/B 3.9 03:07:04 10° N 03:11:11 64° WNW 03:15:15 10° SSW
USA 245 3.3 03:10:21 18° SSE 03:12:47 62° ENE 03:17:00 10° N
Cosmos 676 Rocket 4.4 03:10:30 10° SSW 03:15:47 68° WNW 03:21:07 10° NNE
SPOT 5 3.0 03:14:17 10° S 03:18:32 61° W 03:22:52 10° NNW
IRS-1A Rocket 4.3 03:14:38 12° SSE 03:19:49 82° WSW 03:25:22 10° NNW
SL-08 ROCKET BODY 4.4 03:15:26 10° S 03:21:31 71° E 03:27:34 10° NNE
Cosmos 2228 Rocket 3.6 03:18:36 17° SSE 03:21:42 42° E 03:26:00 10° NNE
Tiangong -0.8 03:19:03 10° W 03:21:44 25° SSW 03:22:45 21° S
MetOp-B 4.5 03:16:37 10° S 03:21:55 64° WSW 03:27:15 10° NNW
Okean O Rocket 4.0 03:21:14 10° SW 03:24:24 19° W 03:27:34 10° NW
Cosmos 1869 Rocket 3.6 03:22:17 10° N 03:26:46 82° W 03:30:18 16° S
SL-4 R/B 4.3 03:23:43 10° WNW 03:26:49 23° N 03:30:04 10° NE
Cosmos 1356 Rocket 3.8 03:25:56 20° SSE 03:28:28 45° E 03:32:29 10° NNE
Meteor 1-12 Rocket 4.5 03:22:34 10° N 03:28:35 64° ENE 03:32:55 19° SSE
S3M 4.0 03:23:01 10° N 03:29:26 84° E 03:34:40 16° S
Cosmos 1400 Rocket 2.7 03:28:43 11° S 03:32:27 83° W 03:36:20 10° N
ERS-1 Rocket 3.1 03:30:43 15° S 03:34:51 72° WSW 03:39:53 10° NNW
Meteor 1-22 Rocket 4.3 03:31:33 10° N 03:37:15 85° W 03:41:50 17° S
Cosmos 2266 Rocket 4.2 03:32:07 10° S 03:38:26 80° W 03:44:52 10° N
Cosmos 841 Rocket 3.5 03:33:13 10° NNW 03:38:31 87° WSW 03:41:59 22° SSE
Cosmos 1980 Rocket 4.4 03:35:31 10° WNW 03:39:15 18° W 03:42:58 10° SW
Cosmos 1655 Rocket 4.0 03:34:27 13° S 03:40:17 75° E 03:46:42 10° N
ATLAS CENTAUR R/B 0.8 03:37:24 10° SSW 03:40:51 78° ESE 03:44:25 10° NE
Cosmos 2322 Rocket 2.3 03:35:46 10° NNW 03:41:27 69° ENE 03:44:58 24° SE
Cosmos 1300 2.6 03:38:18 10° N 03:41:51 60° E 03:43:15 32° SSE
Timation 1 Rocket 4.4 03:38:16 10° SSW 03:44:13 80° WNW 03:50:13 10° NNE
Spot 2 Rocket 3.6 03:42:27 20° S 03:46:01 77° WSW 03:51:08 10° NNW
USA 234 3.6 03:42:51 10° NE 03:49:21 69° NW 03:55:49 10° WSW
Aureole 3 3.8 03:48:02 31° SE 03:49:27 46° E 03:53:51 10° NNE
Cosmos 1315 Rocket 3.9 03:49:43 25° ESE 03:50:23 27° E 03:53:47 10° NNE
Meteor 2-10 Rocket 3.6 03:47:27 10° NNW 03:53:02 82° W 03:56:28 23° S
Cosmos 2278 4.4 03:47:40 10° NW 03:53:08 47° WSW 03:57:04 18° S
Cosmos 1953 3.7 03:50:45 10° NNE 03:53:46 22° ENE 03:54:38 20° E
Cosmos 1862 Rocket 3.5 03:55:14 27° S 03:57:33 75° E 04:01:59 10° NNE
Terra 2.5 03:54:54 18° SSW 03:58:11 48° W 04:02:45 10° NNW
Meteor 1-21 4.2 03:54:03 19° S 03:58:20 79° E 04:04:10 10° NNE
Cosmos 807 4.2 03:59:20 39° S 04:00:26 86° E 04:03:29 10° N
Landsat 5 3.3 03:59:54 10° NNE 04:03:57 81° E 04:05:57 30° S
COSMOS 2428 4.4 04:01:03 10° N 04:05:33 23° NE 04:09:13 13° E
Cosmos 2219 Rocket 2.8 04:01:34 10° NNW 04:07:01 45° ENE 04:09:56 25° ESE
CZ-2C R/B 4.5 04:05:28 10° NE 04:09:25 31° E 04:10:01 30° ESE
Okean 3 3.3 04:08:32 35° S 04:10:12 82° E 04:14:23 10° N
SL-27 R/B 2.8 04:09:25 30° WSW 04:10:22 44° WNW 04:13:03 10° N
Ariane Rocket 3.7 04:07:33 20° SSW 04:10:48 48° W 04:15:44 10° NNW
BlueWalker 3 3.8 04:15:31 17° E 04:15:31 17° E 04:16:35 10° ENE
SL-14 R/B 4.3 04:12:43 17° SW 04:15:16 40° WNW 04:18:52 10° N
Cosmos 1707 Rocket 4.2 04:15:11 19° SSW 04:18:11 54° W 04:22:32 10° N
SJ 16-02 1.2 04:16:45 31° SSW 04:18:48 90° WNW 04:23:09 10° NNE
Meteor 1-4 Rocket 1.9 04:21:23 83° W 04:21:24 84° WNW 04:24:24 10° N
H-2A R/B 4.2 04:22:54 19° E 04:24:07 22° ENE 04:27:24 10° NNE
Cosmos 1346 Rocket 3.5 04:21:19 10° NNW 04:25:01 45° W 04:26:15 33° SW
COSMOS 2455 3.9 04:24:42 25° ESE 04:25:09 25° ESE 04:29:54 10° NE
CZ-4C R/B 3.6 04:28:06 16° E 04:28:06 16° E 04:30:04 10° ENE
SL-08 R/B 4.5 04:25:30 33° SSE 04:28:16 65° E 04:34:17 10° NNE
DNEPR-1 R/B 4.5 04:22:46 10° NNW 04:29:20 65° NE 04:31:50 33° ESE
RESURS DK-1 3.6 04:26:29 10° NW 04:30:04 30° WSW 04:31:10 26° SW
Cosmos 2360 Rocket 2.4 04:26:01 10° NNW 04:31:38 62° WSW 04:34:00 34° S
ARIANE 5 R/B 3.1 04:31:12 38° ESE 04:32:13 46° ENE 04:36:22 10° N
ATLAS 2AS CENTAUR R/B 2.6 04:27:40 10° NW 04:34:28 78° WSW 04:37:29 35° SSE
Cosmos 1733 Rocket 4.3 04:36:58 10° NNW 04:41:00 35° W 04:42:50 24° SW
Cosmos 968 Rocket 4.5 04:37:10 10° SW 04:42:03 44° WNW 04:47:02 10° N
SL-16 R/B 3.8 04:37:44 10° NW 04:42:11 24° WSW 04:45:05 16° SW
Cosmos 1455 1.8 04:40:34 10° N 04:44:05 79° E 04:44:05 79° E
SeaSat 1 4.4 04:42:03 14° SW 04:44:16 19° WSW 04:47:41 10° WNW
SL-24 R/B - RUBIN 2 4.5 04:37:45 10° NNW 04:44:22 75° NE 04:47:01 36° SE
Cosmos 2333 Rocket 2.6 04:39:21 10° NNW 04:44:57 53° WSW 04:47:07 35° SSW
Cosmos 1242 Rocket 3.3 04:46:46 33° NNE 04:46:46 33° NNE 04:48:29 10° NNE
USA 281 3.3 04:45:41 34° SE 04:48:45 73° ENE 04:55:19 10° NNW
Okean 1-7 3.4 04:47:58 39° SW 04:49:21 60° W 04:53:38 10° N
CZ-2C R/B 3.7 04:50:23 39° SE 04:52:05 59° ENE 05:09:15 10° N
GP-B 3.0 04:48:15 10° N 04:52:41 79° E 04:53:24 61° SSE
Cosmos 1814 Rocket 4.4 04:48:43 10° NNW 04:53:54 55° WSW 04:55:33 39° SSW
GENESIS II 3.9 04:54:34 78° NE 04:54:34 78° NE 04:58:00 10° NE
Cosmos 1908 Rocket 3.4 04:50:35 10° N 04:54:56 80° W 04:55:38 61° SSW
Atlas Centaur 2 4.0 04:50:21 10° WSW 04:56:31 24° SSW 04:56:31 24° SSW
Cosmos 1782 Rocket 3.7 04:53:27 10° N 04:57:42 54° E 04:58:10 51° ESE
Cosmos 1408 3.9 05:03:04 25° NE 05:03:04 25° NE 05:04:38 10° NNE
Cosmos 2237 Rocket 3.8 05:01:27 10° N 05:06:15 27° NE 05:09:20 17° E
SL-4 R/B 3.8 05:02:55 10° NW 05:06:29 29° NNE 05:10:13 10° ENE
Cosmos 2322 3.7 05:03:07 10° NNW 05:08:50 80° ENE 05:10:30 48° SE
Cosmos 839 Rocket 4.2 05:03:40 10° NW 05:10:14 60° WSW 05:12:09 42° S
Cosmos 2227 Rocket 3.9 05:10:41 17° E 05:10:41 17° E 05:14:11 10° ENE
Cosmos 1745 Rocket 4.0 05:08:42 42° S 05:11:04 85° E 05:17:28 10° N
Cosmos 2208 Rocket 4.1 05:07:43 10° NNW 05:12:54 67° ENE 05:14:06 50° SE
H-2A R/B 4.1 05:12:22 10° NE 05:14:25 15° E 05:14:25 15° E
Cosmos 1300 Rocket 3.4 05:11:51 10° N 05:16:10 72° E 05:16:26 69° ESE
ATLAS CENTAUR R/B 4.2 05:17:38 10° WNW 05:19:01 12° NW 05:20:24 10° NNW
Nadezhda 1 Rocket 4.0 05:16:07 10° N 05:22:25 77° W 05:24:27 45° S
ALOS 2 2.9 05:23:09 51° E 05:23:37 54° ENE 05:27:54 10° N
Cosmos 2322 Rocket 4.1 05:21:16 10° WNW 05:24:50 17° W 05:26:46 15° WSW
PSLV R/B 4.4 05:21:35 10° N 05:25:28 50° WNW 05:26:00 47° W
Cosmos 1953 3.9 05:26:24 10° NW 05:29:31 24° W 05:29:44 24° W
Cosmos 2297 Rocket 2.4 05:29:40 47° SE 05:30:18 49° ESE 05:35:43 10° NE
CZ-3 Stage 3 4.1 05:04:16 10° W 05:32:51 41° SSW 05:35:53 35° S
CENTAUR R/B 3.7 05:33:38 22° ESE 05:33:38 22° ESE 05:38:13 10° ENE
Meteor 2-5 Rocket 3.8 05:41:48 53° SSE 05:43:11 72° E 05:49:01 10° NNE
Cosmos 1486 Rocket 4.0 05:46:25 52° SW 05:47:38 72° WNW 05:52:50 10° NNE
Cosmos 2242 Rocket 3.8 05:48:16 56° WSW 05:48:46 60° W 05:53:19 10° N
COSMOS 2428 2.8 05:44:36 10° NNW 05:50:12 60° WSW 05:51:11 52° SSW
Cosmos 2219 Rocket 3.4 05:45:59 10° NW 05:50:41 27° WSW 05:51:37 26° WSW
Cosmos 371 Rocket 3.2 05:50:32 64° SW 05:51:11 77° WNW 05:56:02 10° NNE
BlueWalker 3 3.1 05:49:45 26° W 05:51:18 39° NNW 05:54:51 10° NE
Sich 1 Rocket 4.4 05:47:30 10° N 05:51:37 38° ENE 05:51:57 37° E
Cosmos 405 Rocket 3.2 05:51:57 10° N 05:55:13 51° NE 05:55:13 51° NE
H-2A R/B 3.5 05:58:52 36° W 05:58:52 36° W 06:02:47 10° NNW
Cosmos 1354 Rocket 3.9 06:01:44 64° SSE 06:02:24 73° ESE 06:07:41 10° NNE
Cosmos 2263 Rocket 3.9 06:03:48 17° ESE 06:04:13 18° E 06:07:48 10° ENE
NOSS 0 Rocket 4.0 06:02:28 10° NNW 06:08:40 67° WSW 06:10:02 52° SSW
COSMOS 2455 3.3 06:07:47 30° WSW 06:10:39 57° NW 06:16:36 10° NNE
SL-12 R/B(2) 4.5 06:09:01 40° SSE 06:11:31 52° ESE 06:20:23 10° NE
CZ-4C R/B 2.3 06:13:08 40° WSW 06:14:30 55° NW 06:19:55 10° NNE
Cosmos 1703 4.3 06:15:08 34° WNW 06:15:08 34° WNW 06:18:15 10° N
NOSS 3-2 (A) 4.2 06:18:59 29° ESE 06:18:59 29° ESE 06:23:45 10° NE
Cosmos 1892 3.2 06:24:40 51° N 06:24:40 51° N 06:27:22 10° N
Cosmos 2184 Rocket 4.0 06:22:41 49° SSE 06:24:25 72° E 06:30:47 10° NNE
PSLV R/B 3.9 06:23:23 10° N 06:27:30 52° WNW 06:27:40 52° W
Okean 1 Rocket 3.2 06:23:26 10° N 06:27:44 59° E 06:27:57 58° E
Cosmos 2098 Rocket 4.3 06:24:21 10° NNW 06:30:48 57° W 06:32:30 44° SW
Cosmos 2154 Rocket 3.9 06:39:30 50° S 06:41:15 79° E 06:47:32 10° N
SL-16 R/B 3.0 06:37:55 10° NNW 06:43:25 46° ENE 06:46:35 24° ESE
Cosmos 332 Rocket 3.9 06:44:02 57° WSW 06:44:46 66° WNW 06:49:39 10° NNE
SL-4 R/B 2.1 06:41:27 10° WNW 06:45:06 68° WNW 06:45:06 68° WNW
BREEZE-M DEB (TANK) 4.3 06:44:33 10° NNW 06:49:10 - E 06:45:51 16° NNE
Cosmos 990 Rocket 3.8 06:48:20 65° S 06:49:05 80° ESE 06:54:13 10° NNE
Cosmos 1975 Rocket 4.0 06:49:56 35° ESE 06:50:21 35° E 06:54:21 10° NNE
Cosmos 2237 Rocket 2.4 06:45:06 10° NW 06:50:32 49° WSW 06:51:07 47° SW
H-2A R/B 2.6 06:46:51 10° N 06:50:54 45° WNW 06:51:12 44° W
Cosmos 2082 4.3 06:51:06 38° SE 06:52:08 42° ESE 06:57:24 10° NE
Cosmos 2227 Rocket 2.3 06:52:28 47° SW 06:54:02 69° WNW 06:59:43 10° NNE
Cosmos 2084 Rocket 4.3 06:54:18 36° W 06:55:13 42° NW 06:59:11 10° NNE
IDEFIX/ARIANE 42P 4.4 06:51:51 10° NE 06:55:37 20° E 06:57:28 17° ESE
Cosmos 1825 3.3 06:56:41 32° NW 06:56:41 32° NW 06:59:13 10° N
Cosmos 2151 Rocket 4.5 06:54:30 10° NNW 06:58:23 35° W 06:58:23 35° W
Cosmos 1980 4.4 06:58:25 10° NW 07:03:32 36° WSW 07:03:53 35° WSW
GEOS 3 Rocket 3.9 06:59:19 10° NNE 07:04:23 59° NW 07:06:16 36° WSW
Cosmos 1455 Rocket 3.3 07:00:35 10° N 07:05:00 63° E 07:05:42 54° SE
CZ-2D R/B 4.1 07:01:48 10° NE 07:05:14 17° E 07:07:38 13° ESE
Okean 2 Rocket 4.1 07:01:13 10° NNW 07:05:12 33° W 07:05:12 33° W
Cosmos 1538 Rocket 3.9 07:01:38 10° NNW 07:06:52 83° ENE 07:08:16 50° SSE
Meteor 1-21 Rocket 4.2 07:07:55 51° S 07:09:30 89° E 07:15:15 10° N
Cosmos 2297 Rocket 3.8 07:11:26 17° W 07:14:34 27° NW 07:19:21 10° N
Cosmos 2219 3.1 07:15:09 49° SW 07:16:43 82° WNW 07:22:22 10° NNE
Cosmos 1025 Rocket 3.3 07:17:45 52° W 07:18:04 54° W 07:22:19 10° N
Cosmos 1606 4.0 07:16:02 10° NNE 07:19:13 30° ENE 07:19:53 27° E
CENTAUR R/B 2.7 07:20:44 34° WSW 07:23:14 63° NW 07:30:09 10° NNE
Cosmos 372 Rocket 4.1 07:22:07 47° SSE 07:23:24 63° ESE 07:28:33 10° NNE
Aureole 1 Rocket 2.6 07:23:52 75° NW 07:23:52 75° NW 07:27:58 10° NNE
TIMED 4.4 07:27:36 63° WSW 07:28:07 72° WNW 07:32:26 10° NNE
Cosmos 2341 Rocket 4.0 07:27:49 38° S 07:30:19 74° E 07:36:31 10° N
ADEOS II 4.1 07:27:31 10° NE 07:31:14 19° E 07:34:19 12° SE
Helios 1A Rocket 2.5 07:33:26 81° SSW 07:33:34 84° W 07:37:23 10° NNW
CRYOSAT 2 4.3 07:28:58 10° N 07:33:53 79° W 07:35:03 52° SSW
Cosmos 923 Rocket 4.3 07:29:39 10° NNW 07:34:54 64° ENE 07:37:48 26° SE
Cosmos 1461 2.8 07:36:27 62° SE 07:36:36 62° ESE 07:40:29 10° NE
Meteor 2-1 Rocket 4.3 07:34:05 10° N 07:40:02 85° E 07:42:41 34° SSE
Cosmos 1937 Rocket 3.5 07:38:33 46° S 07:40:08 76° ESE 07:45:24 10° NNE
MOZ.5/SAFIR/RUBIN 5/SL-8 3.8 07:39:56 39° SSE 07:41:39 75° ENE 07:46:16 10° N
Cosmos 1898 Rocket 3.5 07:42:11 45° SW 07:43:44 74° WNW 07:48:55 10° NNE
Resurs 1-4 Rocket 3.0 07:39:55 10° NNE 07:44:54 40° E 07:47:22 25° SSE
Cosmos 2263 Rocket 2.3 07:45:28 39° SW 07:47:31 66° WNW 07:53:05 10° NNE
Cosmos 1821 Rocket 4.3 08:00:01 25° SSE 08:03:38 62° E 08:09:40 10° NNE
Cosmos 1869 3.0 08:02:05 10° NNW 08:05:45 64° W 08:06:12 58° SW
Cosmos 2218 Rocket 4.0 08:03:34 33° SSW 08:06:35 76° W 08:12:47 10° N
Cosmos 1844 Rocket 3.7 08:04:20 21° SSE 08:07:20 37° ESE 08:12:25 10° NE
NOSS 3-2 (A) 4.0 08:06:19 23° WSW 08:09:19 44° NW 08:15:13 10° NNE
ALOS 4.2 08:06:17 10° NE 08:09:55 23° E 08:13:24 11° SE
Cosmos 2366 rocket 4.1 08:10:21 31° SSW 08:13:25 64° W 08:19:38 10° N
Cosmos 1437 Rocket 3.3 08:12:41 31° SSE 08:14:08 49° E 08:17:48 10° NNE
NOSS 3-2 (C) 3.1 08:12:44 34° SW 08:15:09 83° NW 08:21:15 10° NE
Cosmos 1544 Rocket 3.6 08:12:15 10° NNW 08:16:38 60° W 08:18:04 38° SSW
Cosmos 1680 Rocket 3.4 08:11:54 10° NNW 08:17:06 75° WSW 08:20:14 24° S
Cosmos 2112 Rocket 3.9 08:14:10 10° NNW 08:19:23 84° WSW 08:23:05 19° SSE
Cosmos 1818 3.5 08:14:08 10° NW 08:19:37 74° WSW 08:24:48 11° SSE
Cosmos 2228 2.9 08:15:55 10° NNW 08:20:14 75° W 08:21:59 35° S
USA 267 3.9 08:14:13 10° ENE 08:20:22 42° SE 08:24:01 23° S
MSX 3.8 08:16:35 10° NNE 08:22:20 84° WNW 08:25:33 28° SSW
COSMOS 2441 4.4 08:21:42 10° NNE 08:26:31 73° ESE 08:29:14 26° S
SL-16 R/B 3.2 08:22:34 10° NW 08:27:13 27° WSW 08:28:24 25° WSW
Cosmos 1603 4.0 08:26:39 10° NNW 08:32:25 68° ENE 08:38:05 10° SSE
H-2A R/B 3.7 08:30:31 10° N 08:34:23 51° WNW 08:35:54 32° SW
IDEFIX/ARIANE 42P 2.9 08:30:20 10° N 08:35:26 53° WNW 08:38:13 26° SW
SL-16 R/B 3.0 08:30:56 10° SSE 08:37:04 62° ENE 08:43:12 10° N
Cosmos 2227 Rocket 4.5 08:36:35 10° WNW 08:39:11 13° NW 08:41:47 10° NNW
CZ-2C R/B 2.7 08:37:16 22° S 08:40:39 61° W 08:45:58 10° NNW
CZ-2C R/B 3.1 08:36:13 10° N 08:41:39 79° WNW 08:44:53 23° SSW
Cosmos 1943 3.1 08:36:41 10° NNW 08:42:15 65° WSW 08:47:43 10° S
CZ-2D R/B 2.3 08:40:24 10° N 08:45:40 62° WNW 08:48:55 23° SW
FENGYUN 3A 3.6 08:43:36 10° NNE 08:49:01 88° WNW 08:52:54 19° SSW
Cosmos 1606 Rocket 3.6 08:47:43 10° N 08:52:12 85° E 08:56:16 12° S
Cosmos 921 Rocket 3.0 08:48:42 10° NNW 08:52:57 80° ENE 08:57:06 10° SSE
Cosmos 1606 4.4 08:51:27 10° NW 08:53:37 15° W 08:53:51 15° W
Cosmos 1048 Rocket 4.4 08:48:36 10° NNW 08:53:48 64° ENE 08:59:02 10° SSE
ASTEX 1 3.3 08:52:23 13° S 08:56:48 90° W 09:01:41 10° N
Cosmos 1536 Rocket 4.4 08:55:28 22° SW 08:57:38 35° WNW 09:01:43 10° N
Cosmos 1125 Rocket 4.1 08:57:57 13° S 09:02:30 55° ESE 09:07:40 10° NNE
CZ-2C R/B 4.3 08:59:42 10° NE 09:03:19 23° E 09:06:57 10° SSE
Orbus 7S? 3.4 09:01:35 10° NW 09:04:39 58° SW 09:10:22 10° SSE
Cosmos 1867 3.7 09:01:14 20° SW 09:05:04 68° NW 09:10:34 10° NNE
Cosmos 1727 Rocket 4.3 08:59:01 10° NNW 09:05:06 50° W 09:10:22 14° SSW
Cosmos 1726 Rocket 3.5 09:03:13 10° N 09:07:41 88° W 09:12:05 10° S
Cosmos 1238 Rocket 4.4 09:04:48 10° NNE 09:07:47 28° ENE 09:10:28 10° SE
Cosmos 494 Rocket 4.0 09:04:34 10° NNW 09:09:47 67° WSW 09:14:58 10° S
Cosmos 1812 3.0 09:07:17 10° N 09:10:49 60° E 09:14:20 10° SSE
Iridium 2 2.4 09:09:46 24° S 09:11:05 89° W 09:13:34 10° N
ADEOS II 2.4 09:06:03 10° N 09:11:10 54° WNW 09:15:11 16° SW
IRAS Rocket 4.3 09:09:57 10° NNE 09:15:27 78° ESE 09:20:57 10° SSW
Cosmos 2058 3.3 09:12:26 10° S 09:16:24 62° E 09:20:27 10° NNE
SAR-Lupe-4 3.5 09:16:00 10° NNE 09:19:34 86° WNW 09:22:35 14° SSW
Cosmos 1844 3.9 09:15:24 16° SW 09:20:04 67° WNW 09:25:52 10° NNE
USA 238 DEB 3.9 09:16:15 15° SW 09:21:26 58° NW 09:28:05 10° NNE
USA 238 3.9 09:16:17 15° SW 09:21:28 59° NW 09:28:08 10° NNE
USA 81 4.1 09:16:57 10° N 09:22:16 87° E 09:27:32 10° S
Resurs 1-4 Rocket 3.3 09:20:05 10° N 09:24:28 27° WNW 09:28:26 12° WSW
Iridium 4 Rocket 3.4 09:22:31 10° N 09:27:00 76° E 09:31:50 10° S
ATLAS 5 CENTAUR R/B 2.9 09:26:35 10° SSE 09:29:07 21° ESE 09:31:46 10° ENE
Timation 2 Rocket 4.2 09:23:52 11° SSW 09:30:25 82° ESE 09:36:50 10° NNE
UNK 3.7 09:27:46 10° S 09:32:21 69° WSW 09:36:56 10° NNW
Cosmos 2263 Rocket 4.4 09:30:19 10° WNW 09:32:34 12° NW 09:34:48 10° NNW
Cosmos 724 4.3 09:31:28 10° NNW 09:37:18 86° WSW 09:43:09 10° SSE
Meteor 1-28 Rocket 4.2 09:35:43 12° SSW 09:38:15 25° W 09:41:13 10° NW
NOAA 11 4.3 09:38:55 10° NNE 09:44:26 82° ESE 09:49:53 10° SSW
Cosmos 1544 2.1 09:42:43 10° SSW 09:45:19 76° W 09:47:57 10° N
Cosmos 2058 Rocket 3.1 09:41:32 10° NNW 09:45:57 65° W 09:50:16 10° S
Cosmos 1892 Rocket 4.3 09:42:42 10° SW 09:46:43 37° WNW 09:50:51 10° N
ALOS 3.0 09:42:57 10° N 09:47:12 37° WNW 09:51:26 10° SW
Cosmos 1844 Rocket 3.7 09:46:11 10° WSW 09:51:12 34° WNW 09:56:14 10° N
METEOR-M 4.2 09:46:18 10° N 09:51:40 79° WNW 09:57:00 10° SSW
Cosmos 1758 Rocket 4.4 09:47:29 10° S 09:51:47 52° E 09:56:03 10° NNE
Cosmos 2298 Rocket 4.1 09:50:20 10° SSW 09:55:39 89° ESE 10:01:02 10° NNE
BREEZE-M DEB (TANK) 4.3 09:54:37 10° SW 09:58:13 62° SE 10:11:06 10° ENE
Cosmos 1607 4.2 09:52:56 10° NW 09:59:04 49° WSW 10:05:01 10° S
USA 267 3.6 09:57:06 10° NE 10:03:32 62° NW 10:09:56 10° WSW
NOSS 2-2 (C) 2.8 10:00:57 10° SSW 10:04:19 76° ESE 10:07:24 10° NE
Cosmos 1605 Rocket 4.1 09:59:10 10° SSW 10:05:16 61° W 10:11:21 10° N
